sat.trackr.live / text

‹ back to catalog

STARLINK-30331

NORAD 57740 · 2023-131J

PAYLOAD ACTIVE UNKNOWN

§ Identity

Operator
Country
US
Launch date
2023-09-01
Launch site
AFETR
Launch vehicle
Mass (kg)
RCS (m²)

Purposes: comms

External: N2YO · Heavens-Above · Gunter

§ Orbital elements

Epoch: 2026-09-20T04:59:00.830400Z

Period
94.27 min
Inclination
43.0032°
Eccentricity
0.0001156
Mean motion
15.27586377 rev/d
Perigee alt
482.2 km
Apogee alt
483.8 km
Semi-major
6,861.2 km
B*
3.4518e-6
RAAN
80.8688°
Arg perigee
273.1589°
Mean anomaly
86.9130°
Rev number
17,052

§ Raw data

STARLINK-303311 57740U 23131J   26263.20764850 -.00000167  00000+0  34518-5 0  99942 57740  43.0032  80.8688 0001156 273.1589  86.9130 15.27586377170526

JSON: /api/v1/satellites/57740 · /tle

For live sub-satellite position, see the globe view (requires WebGL).

§ Visibility from observer

Set your observer location to see the next 7 days of passes ≥ 10°. The values pass through the URL so the page stays shareable.

No JS? Fill the form by hand. The geolocation button needs JavaScript.